FW1946 Weather Reports


Display with metric or nautical units.
time (UTC)temp
F
wind
direction
speed
MPH
gust
MPH
rain 1hr
in
rain 24hr
in
rain mn
in
humidity
%
barometer
mb
20260508193105 64 289 3.0 13.0 0.00 0.00 0.00 51 1020.0
20260508191535 63 282 3.0 17.0 0.00 0.00 0.00 52 1020.0
20260508190032 61 260 3.0 13.0 0.00 0.00 0.00 55 1020.2
20260508184535 59 271 3.0 11.0 0.00 0.00 0.00 56 1020.3
20260508181641 55 304 4.0 11.0 0.00 0.00 0.00 61 1020.3
20260508180031 54 311 4.0 14.0 0.00 0.00 0.00 61 1020.2
20260508174529 54 295 3.0 14.0 0.00 0.00 0.00 61 1020.3
20260508173035 55 285 2.0 7.0 0.00 0.00 0.00 61 1020.1
20260508171531 55 267 2.0 10.0 0.00 0.00 0.00 61 1019.9
20260508164607 56 271 2.0 9.0 0.00 0.00 0.00 62 1019.8
20260508163145 57 259 2.0 12.0 0.00 0.00 0.00 61 1019.9
20260508160036 58 266 3.0 14.0 0.00 0.00 0.00 61 1019.9
20260508154537 57 286 2.0 12.0 0.00 0.00 0.00 64 1019.8
20260508153035 56 279 2.0 15.0 0.00 0.00 0.00 65 1019.7
20260508151533 56 275 2.0 14.0 0.00 0.00 0.00 65 1019.5
20260508150035 56 255 2.0 8.0 0.00 0.00 0.00 64 1019.3
20260508144530 55 271 2.0 10.0 0.00 0.00 0.00 63 1019.0
20260508141531 55 291 2.0 11.0 0.00 0.00 0.00 60 1018.4
20260508140105 55 233 2.0 9.0 0.00 0.00 0.00 59 1018.3
20260508134605 55 262 2.0 9.0 0.00 0.00 0.00 61 1018.2
20260508133035 55 241 2.0 9.0 0.00 0.00 0.00 63 1018.0
20260508131530 55 254 1.0 8.0 0.00 0.00 0.00 65 1017.8
20260508130030 55 260 2.0 11.0 0.00 0.00 0.00 65 1017.7
20260508123037 55 269 2.0 8.0 0.00 0.00 0.00 66 1017.5
20260508121535 54 302 1.0 7.0 0.00 0.00 0.00 67 1017.5
20260508120037 52 312 2.0 6.0 0.00 0.00 0.00 72 1017.4
20260508114533 46 208 2.0 8.0 0.00 0.00 0.00 80 1017.2
20260508113045 44 158 0.0 4.0 0.00 0.00 0.00 81 1017.1
20260508104532 44 180 0.0 0.0 0.00 0.00 0.00 78 1016.9
20260508103107 45 180 0.0 0.0 0.00 0.00 0.00 75 1016.9
20260508101535 47 183 0.0 2.0 0.00 0.00 0.00 74 1017.0
20260508100034 46 187 1.0 3.0 0.00 0.00 0.00 75 1016.9
20260508094536 45 193 0.0 3.0 0.00 0.00 0.00 74 1016.9
20260508093107 46 202 0.0 0.0 0.00 0.00 0.00 72 1016.8
20260508091530 47 198 0.0 2.0 0.00 0.00 0.00 70 1016.8
20260508090031 48 180 0.0 2.0 0.00 0.00 0.00 68 1016.7
20260508080037 51 292 0.0 1.0 0.00 0.00 0.00 55 1016.8
20260508074537 56 292 0.0 0.0 0.00 0.00 0.00 49 1016.8
20260508073035 57 277 0.0 8.0 0.00 0.00 0.00 47 1016.8
20260508071536 57 318 0.0 6.0 0.00 0.00 0.00 46 1016.7
20260508070035 58 290 0.0 5.0 0.00 0.00 0.00 46 1016.7
20260508064653 58 243 0.0 6.0 0.00 0.00 0.00 46 1016.7
20260508063031 59 251 0.0 6.0 0.00 0.00 0.00 46 1016.7
20260508061606 59 267 0.0 5.0 0.00 0.00 0.00 45 1016.7
20260508060030 59 252 0.0 6.0 0.00 0.00 0.00 44 1016.8
20260508054536 60 259 1.0 7.0 0.00 0.00 0.00 44 1016.8
20260508053032 60 267 0.0 4.0 0.00 0.00 0.00 44 1016.8
20260508051534 61 242 0.0 5.0 0.00 0.00 0.00 43 1016.8
20260508050035 61 275 1.0 8.0 0.00 0.00 0.00 44 1016.7
20260508044536 61 280 1.0 9.0 0.00 0.00 0.00 44 1016.6
20260508043030 61 272 1.0 6.0 0.00 0.00 0.00 44 1016.6
20260508041539 61 247 0.0 6.0 0.00 0.00 0.00 43 1016.6
20260508040032 61 253 0.0 7.0 0.00 0.00 0.00 42 1016.3
20260508034642 61 257 0.0 6.0 0.00 0.00 0.00 40 1016.2
20260508033031 62 281 0.0 5.0 0.00 0.00 0.00 38 1016.1
20260508031537 63 296 0.0 6.0 0.00 0.00 0.00 34 1016.0
20260508023030 66 298 1.0 13.0 0.00 0.00 0.00 29 1015.7
20260508021651 66 281 1.0 11.0 0.00 0.00 0.00 28 1015.6
20260508020033 67 285 2.0 9.0 0.00 0.00 0.00 27 1015.6
20260508014534 68 287 2.0 11.0 0.00 0.00 0.00 26 1015.5
20260508013030 69 284 2.0 12.0 0.00 0.00 0.00 26 1015.5
20260508011607 69 291 2.0 8.0 0.00 0.00 0.00 25 1015.7
20260508010107 69 293 3.0 15.0 0.00 0.00 0.00 25 1015.8
20260508004528 69 293 3.0 14.0 0.00 0.00 0.00 24 1015.7
20260508003033 69 288 2.0 14.0 0.00 0.00 0.00 24 1015.7
20260508001607 70 299 3.0 14.0 0.00 0.00 0.00 24 1015.7
20260507234530 70 299 3.0 12.0 0.00 0.00 0.00 23 1015.7
20260507233031 70 289 3.0 11.0 0.00 0.00 0.00 23 1015.7
20260507230035 70 282 3.0 13.0 0.00 0.00 0.00 27 1015.9
20260507224535 70 289 3.0 15.0 0.00 0.00 0.00 29 1016.0
20260507223133 70 279 3.0 13.0 0.00 0.00 0.00 30 1016.1
20260507221535 69 286 3.0 19.0 0.00 0.00 0.00 32 1016.3
20260507220038 69 286 3.0 15.0 0.00 0.00 0.00 33 1016.4
20260507214607 69 295 4.0 15.0 0.00 0.00 0.00 36 1016.7
20260507213035 69 290 3.0 14.0 0.00 0.00 0.00 38 1016.8
20260507210111 69 282 3.0 12.0 0.00 0.00 0.00 39 1016.9
20260507204530 69 288 3.0 13.0 0.00 0.00 0.00 39 1017.0
20260507203033 69 287 3.0 15.0 0.00 0.00 0.00 40 1017.1
20260507201538 69 282 3.0 14.0 0.00 0.00 0.00 41 1017.3
20260507200032 68 294 3.0 11.0 0.00 0.00 0.00 41 1017.5